This is the latest recevied weather packets stored in our database for station/object KB2FWP. If no packets are shown the sender has not sent any weather packets the latest 10 day(s).
| Time | Temp. | Humidity | Pressure | Rain* | Wind** | Luminosity | Snow |
|---|---|---|---|---|---|---|---|
| 1787712325 | 21.67° C | 76% | 1018.4 hPa | 0 mm | - | - | - |
| 1787711424 | 22.22° C | 75% | 1018.3 hPa | 0 mm | - | - | - |
| 1787710528 | 22.22° C | 76% | 1018.3 hPa | 0 mm | - | - | - |
| 1787709623 | 22.22° C | 79% | 1018.2 hPa | 0 mm | - | - | - |
| 1787708725 | 22.22° C | 81% | 1018.2 hPa | 0 mm | - | - | - |
| 1787707833 | 22.22° C | 82% | 1018 hPa | 0 mm | - | - | - |
| 1787706926 | 22.22° C | 82% | 1017.8 hPa | 0 mm | - | - | - |
| 1787706018 | 22.78° C | 82% | 1017.6 hPa | 0 mm | - | - | - |
| 1787705116 | 22.78° C | 81% | 1017.2 hPa | 0 mm | - | - | - |
| 1787704215 | 22.78° C | 81% | 1017.1 hPa | 0 mm | - | - | - |
| 1787703316 | 22.78° C | 79% | 1016.9 hPa | 0 mm | - | - | - |
| 1787702416 | 22.78° C | 78% | 1016.8 hPa | 0 mm | - | - | - |
| 1787701514 | 22.78° C | 78% | 1016.6 hPa | 0 mm | - | - | - |
| 1787700614 | 23.33° C | 79% | 1016.5 hPa | 0 mm | - | - | - |
| 1787699714 | 23.33° C | 78% | 1016.4 hPa | 0 mm | - | - | - |
| 1787698816 | 23.33° C | 77% | 1016.4 hPa | 0 mm | - | - | - |
| 1787697915 | 23.33° C | 75% | 1016.3 hPa | 0 mm | - | - | - |
| 1787697012 | 23.89° C | 75% | 1016.3 hPa | 0 mm | - | - | - |
| 1787696114 | 24.44° C | 73% | 1016.2 hPa | 0 mm | - | - | - |
| 1787695210 | 24.44° C | 72% | 1016.2 hPa | 0 mm | - | - | - |
| 1787694315 | 24.44° C | 71% | 1016.2 hPa | 0 mm | - | - | - |
| 1787693409 | 24.44° C | 73% | 1016.1 hPa | 0 mm | - | - | - |
| 1787692508 | 24.44° C | 72% | 1016.1 hPa | 0 mm | - | - | - |
| 1787691608 | 23.89° C | 74% | 1016.2 hPa | 0 mm | - | - | - |
| 1787690707 | 23.89° C | 74% | 1016.2 hPa | 0 mm | - | - | - |
* Rain latest hour (hover to see other rain measurements)
** Current wind speed in m/s (hover to see current wind gust speed)